STARLINK-3828, 52469

Orbit data source: Space-Track

STARLINK-3828, 52469 is a payload satellite owned by SpaceX/Seattle (US) in LEO that was launched on Fri, 06 May 2022 UTC via an FALCON 9 launch vehicle from the Air Force Eastern Test Range (AFETR). Payload-class satellites include a variety of spacecraft equipped with specific instruments for various scientific and technological missions. These include communications satellites like Starlink; space stations such as the ISS; scientific satellites like the Hubble; Earth observation satellites from companies like Planet Labs, Umbra, and HawkEye 360; GPS; miniature CubeSats for education and research; and military/defense satellites.

Loading next visibility...
Identifier
52469, 2022-049U
Orbit
LEO
Country
Flag of USUS
Related business
Manufacturer
SpaceX/Seattle
Mission
Operational Commercial Communications
Bus & Motor
STARLINK, Unknown motor
Mass
297 kg wet, ~220 kg dry
Launch date (UTC)
2022-05-06 (4 years ago)
Launch vehicle
FALCON 9
Launch site
Air Force Eastern Test Range (AFETR)
Object type
Payload
Rocket body
Debris
Shape & HBR
Box + 1 Pan, 10.1 m
Radar Cross Section
13.562 m², Large (>1 m²)

Expand to show TLE details & history
Last TLE update: 14 hours ago

TLE from 14 hours ago
0 STARLINK-3828
1 52469U 22049U   26228.51203184  .00000257  00000-0  19140-4 0  9990
2 52469  53.1614  57.1834 0001072  89.8689 270.2436 15.33543961236436
Epoch: 2026-08-16T12:17Z
TLE epoch observation values (Epoch: 2026-08-16T12:17:19.550Z)
Latitude
-0.00005°
Longitude
-92.05559°
Altitude
466.147 km
Speed
7.635 km/s
True Right ascension
03h 48m 44s
True Declination
0° 00' 00"
Sunlit
Object was in daylight at epoch
Visualization orbit readout
Latitude
Unknown
Longitude
Unknown
Altitude
Unknown
Speed
Unknown
Apparent Right ascension
Unknown
Apparent Declination
Unknown
Sunlit
N/A
Visualization observer readout
Local Sidereal Time
17:18:35
Azimuth
Unknown
Elevation
Unknown
Doppler factor
Unknown
Orbital elements
Apogee altitude
466.239 km
Perigee altitude
464.772 km
Semi-major axis
6,843.642 km
Eccentricity
0.00011
Inclination
53.1614°
RAAN
57.1834°
Arg. of periapsis
89.8689°
True anomaly
270.23132°
Mean anomaly
270.2436°
Eccentric anomaly
270.23746°
Mean motion
3.83365 °/min
Orbital period
93.91 mins
BSTAR
0.00001914
Loading maneuver chart data...
Computing Atmospheric mass density...
Loading historical data...
Loading historical data...
Loading historical data...
Loading historical data...
Loading historical data...
Loading historical data...
Loading historical data...

Documentation

Showing up to 5 results
|